www.pogodaiklimat.ru

Погода и климат >> Архив погоды >> Россия >> Самарская область >> Аглос


ПОГОДА в Аглосе

  • Прогноз погоды в Аглосе
  • Монитор погоды в Аглосе

АРХИВ ПОГОДЫ в Аглосе

Время (UTC), дата Ветер
(напр.,м/с)
 
Видим.   Явления Облачность Т
(С)
Тd
(С)
f
(%)
Тe
(С)
Тes
(С)
Комфортность P
(гПа)
Po
(гПа)
Тmin
(С)
Tmax
(С)
R
(мм)
R24
(мм)
S
(см)
18 16.07 С 1 50 км 9/5 600 м
[Sc diur, vesp Ac As Cs]
+21.2 +7.5 41 +22 +22 комфорт 1012.9 1004.5
21 16.07 В 1 50 км {ливн. осадки} 10/10 600 м
[Sc diur, vesp]
+20.8 +10.7 52 +24 +24 комфорт 1012.1 1003.6
00 17.07 ЮВ 1 50 км {ливн. осадки} 10/10 840 м
[Cb cap]
+19.7 +11.7 60 +22 +22 комфорт 1012.4 1003.8
03 17.07 ЮВ 2 50 км слаб. ливневой дождь 10/10 840 м
[Cb cap]
+19.2 +13.5 70 +21 +21 комфорт 1012.2 1003.7 +17.6 0.0
06 17.07 СВ 3 20 км слаб. ливневой дождь 10/8 750 м
[Cb cap Ac As]
+17.5 +17.2 98 +17 +18 1011.4 1002.9 +17.2
09 17.07 В 2 50 км слаб. ливневой дождь 10/10 570 м
[Cb cap]
+19.5 +17.9 90 +22 +22 комфорт 1011.2 1002.7
12 17.07 В 3 50 км {ливн. осадки} 10/10 750 м
[Cb cap]
+22.5 +16.3 68 +27 +27 душно 1009.9 1001.5
15 17.07 В 3 20 км 9/8 840 м
[Cb cap Ac trans]
+21.6 +15.6 69 +25 +25 комфорт 1009.2 1000.8 +23.5 4
18 17.07 СВ 3 20 км в посл. час гроза {ливн. осадки} 10/8 600 м
[Cb cap Ci ing]
+19.3 +16.3 83 +21 +21 комфорт 1007.6 999.1
21 17.07 В 3 50 км 9/0
[Ac cast Cs]
+19.4 +15.4 78 +21 +21 комфорт 1006.6 998.1
00 18.07 СВ 2 50 км 3/1 1000 м
[Sc diur, vesp Ci fib]
+16.7 +14.8 89 +17 +17 1006.5 998.0
03 18.07 СВ 2 50 км 3/0
[Ci fib]
+18.1 +16.0 88 +19 +21 1005.6 997.1 +15.5 0.1
06 18.07 ЮВ 1 50 км 1/0
[Ci fib]
+24.8 +15.0 54 +28 +41 жарко 1004.7 996.4
09 18.07 С 1 50 км 1/0
[Ci fib]
+28.6 +15.5 45 +31 +50 жарко 1004.3 996.1
12 18.07 СЗ 3 50 км 3/3 1000 м
[Cu hum]
+29.4 +16.6 46 +33 +38 душно 1004.4 996.2
15 18.07 З 2 50 км ясно +28.1 +14.7 44 +31 +32 душно 1005.3 997.1 +29.8
18 18.07 З 2 50 км ясно +22.0 +18.7 82 +27 +27 душно 1006.8 998.4
21 18.07 З 2 50 км ясно +18.8 +17.4 92 +21 +21 комфорт 1007.9 999.4
00 19.07 З 1 20 км 3/0
[Ac trans]
+18.5 +17.3 93 +20 +20 1008.5 1000.0
03 19.07 З 1 50 км 8/0
[Ci]
+20.6 +18.1 86 +26 +28 душно 1009.6 1001.1 +17.8
06 19.07 СЗ 2 20 км 10/3 600 м
[Sc diur, vesp Ac As Ci]
+23.8 +16.6 64 +27 +31 жарко 1009.5 1001.1
09 19.07 З 3 20 км 8/3 1000 м
[Cu hum Ac cast Ci fib]
+27.6 +13.2 41 +29 +35 жарко 1009.8 1001.5
12 19.07 З 3 50 км 3/3 1000 м
[Cu hum Ci sp]
+29.0 +10.8 32 +29 +35 жарко 1009.9 1001.6
15 19.07 З 1 50 км 1/0
[Ci sp]
+28.4 +11.1 34 +29 +30 жарко 1010.0 1001.7 +29.0
18 19.07 ЮЗ 2 50 км ясно +20.8 +13.3 62 +24 +24 комфорт 1011.0 1002.5
21 19.07 ЮЗ 2 50 км ясно +17.4 +12.7 74 +18 +18 1011.4 1002.8
00 20.07 ЮЗ 1 50 км 1/1 1000 м
[Sc]
+16.9 +13.0 78 +18 +18 1011.9 1003.3
03 20.07 З 1 20 км 3/1 1000 м
[Sc Ci fib]
+20.3 +15.6 74 +24 +27 комфорт 1012.5 1004.0 +15.8
06 20.07 В 2 20 км 3/0
[Ci sp]
+25.7 +13.9 48 +28 +38 жарко 1012.8 1004.4
09 20.07 З 3 50 км 3/3 1000 м
[Cu hum Ci fib]
+27.8 +9.6 32 +28 +37 жарко 1012.8 1004.5
12 20.07 З 3 50 км 3/3 1000 м
[Cu hum]
+28.7 +8.9 29 +28 +34 жарко 1012.9 1004.6
15 20.07 З 2 50 км 1/1 1000 м
[Cu hum]
+27.0 +7.2 28 +27 +28 жарко 1013.2 1004.9 +29.1
18 20.07 З 1 50 км ясно +20.6 +9.5 49 +23 +23 комфорт 1014.1 1005.6
21 20.07 ЮЗ 2 50 км ясно +19.6 +8.6 49 +21 +21 комфорт 1014.3 1005.7
00 21.07 ЮЗ 2 50 км ясно +17.1 +10.6 66 +17 +17 1014.6 1006.0
03 21.07 Ю 1 20 км ясно +19.6 +12.3 63 +22 +25 комфорт 1015.2 1006.6 +15.8
06 21.07 З 2 50 км ясно +25.6 +11.1 40 +27 +38 жарко 1015.1 1006.7
09 21.07 З 4 50 км 5/5 600 м
[Cu med, cong]
+27.9 +8.6 30 +28 +33 жарко 1014.2 1005.8
12 21.07 З 3 50 км 3/3 600 м
[Cu med, cong]
+28.2 +8.2 28 +28 +33 жарко 1013.4 1005.1
15 21.07 З 2 50 км 3/3 600 м
[Cu hum]
+27.5 +8.1 29 +27 +28 жарко 1013.2 1004.8 +29.0
18 21.07 З 2 50 км 1/1 1000 м
[Cu med, cong]
+22.6 +8.8 41 +24 +24 комфорт 1013.3 1004.8
21 21.07 ЮЗ 2 50 км ясно +17.2 +12.5 74 +18 +18 1013.9 1005.3
00 22.07 ЮЗ 2 50 км 1/0
[Ci sp]
+14.7 +12.5 87 +14 +14 1013.7 1005.1
03 22.07 Ю 1 50 км 9/0
[Ci]
+19.5 +14.2 71 +22 +24 комфорт 1013.7 1005.2 +14.4
06 22.07 З 3 50 км 8/1 1000 м
[Cu hum Ci]
+24.5 +12.4 47 +26 +33 жарко 1012.8 1004.4
09 22.07 З 3 50 км 5/4 1000 м
[Cu med, cong Ci fib]
+26.1 +11.9 41 +27 +35 жарко 1011.7 1003.4
12 22.07 СЗ 3
{13}
20 км в посл. час ливневой дождь 10/6 600 м
[Cb cap Ac trans Ci fib]
+23.2 +12.3 50 +26 +27 жарко 1011.4 1002.9
15 22.07 СЗ 2 50 км 3/1 1000 м
[Cu hum Ci fib]
+23.7 +12.4 49 +26 +26 жарко 1010.9 1002.5 +27.8 0.0
18 22.07 СЗ 1 50 км 1/1 600 м
[Cu hum]
+18.8 +11.6 63 +21 +21 комфорт 1012.2 1003.6
21 22.07 З 1 50 км ясно +15.0 +12.5 85 +16 +16 1012.7 1004.0
00 23.07 З 1 50 км 3/0
[Ac trans]
+13.7 +12.5 92 +14 +14 1013.1 1004.3
03 23.07 З 1 50 км ясно +16.9 +13.8 82 +18 +21 1013.7 1005.1 +13.5
06 23.07 СЗ 3 50 км 3/3 1000 м
[Cu med, cong]
+21.5 +12.0 55 +24 +30 комфорт 1013.9 1005.4
09 23.07 СЗ 3 50 км 8/8 600 м
[Cb cap]
+24.1 +11.3 45 +26 +28 жарко 1014.0 1005.6
12 23.07 СЗ 3 50 км 4/4 1000 м
[Cu med, cong]
+25.2 +10.2 39 +26 +31 жарко 1013.7 1005.3

 

Местоположение метеостанции Аглос (Самарская область, Россия): широта 52.97 долгота 50.10 высота над уровнем моря 72 м.

В архиве по умолчанию представлена погода в Аглосе за последнюю неделю. Архивные данные за месяц целиком и за предыдущие месяцы, начиная с января 2011 года, Вы можете получить, выбрав интересующий диапазон дат из раскрывающегося списка и нажав кнопку "Ввод!".


*Определитесь, кто Вы:
робот инопланетянин человек

Внимание! Время в таблицах - всемирное. Для получения местного времени необходимо прибавить поправку, которая равна 4 ч.

Смотрите также архив погоды в соседних городах и на ближайших метеорологических станциях:

Погода в Чапаевске (Самарская область, Россия) (25 км)
Погода в Самаре АМС (Самарская область, Россия) (26 км)
Погода в Самаре-Центр (Самарская область, Россия) (26 км)
Погода в Самаре (Самарская область, Россия) (32 км)
Погода в Безенчуке (Самарская область, Россия) (45 км)
Погода в Красносамарском (Самарская область, Россия) (49 км)
Погода в Курумоче (Самарская область, Россия) (59 км)
Погода в Тольятти (дамба) (Самарская область, Россия) (70 км)
Погода в Большая Глушица (Самарская область, Россия) (70 км)
Погода в Богатом (Самарская область, Россия) (79 км)

Пояснения к столбцам:

Ветер - указаны скорость ветра в м/с - средняя за 10 мин, порывы в срок и между сроками (в фигурных скобках) и направление, откуда дует ветер: С - северный, СВ - северо-восточный, В - восточный, ЮВ - юго-восточный, Ю - южный, ЮЗ - юго-западный, З - западный, СЗ - северо-западный.
Видимость - горизонтальная дальность видимости в метрах или километрах. При видимости от 1 до 10 км при отсутствии осадков обычно наблюдается дымка, при ухудшении видимости до 1 км и менее - туман. В сухую погоду видимость может ухудшаться дымом, пылью или мглою.
Явления - указаны атмосферные явления, наблюдавшиеся в срок или в последний час перед сроком; фигурными скобками обозначены явления, наблюдавшиеся между сроками (за 1-3 часа до срока); квадратными скобками обозначены град или гололедные отложения с указанием их диаметра в мм.
Облачность - указаны через наклонную черту общая и нижняя облачность в баллах и высота нижней границы облаков в метрах; квадратными скобками обозначены формы облаков: Ci - перистые, Cs - перисто-слоистые, Cc - перисто-кучевые, Ac - высококучевые, As - высокослоистые, Sc - слоисто-кучевые, Ns - слоисто-дождевые, Cu - кучевые, Cb - кучево-дождевые. Подробнее классификацию облаков см. в Атласе облаков (PDF).
T - Температура воздуха - температура, измеренная на высоте 2 м над землей.
Td - Температура точки росы - температура, при понижении до которой содержащийся в воздухе водяной пар достигнет насыщения.
f - Относительная влажность воздуха - влажноcть воздуха, измеренная на высоте 2 м над землей.
Te - Эффективная температура - температура, которую ощущает одетый по сезону человек в тени. Характеристика душности погоды. При расчете учитывается влияние влажности воздуха и скорости ветра на теплоощущения человека.
Tes - Эффективная температура на солнце - температура, которую ощущает человек, с поправкой на солнечный нагрев. Характеристика знойности погоды. Зависит от высоты солнца над горизонтом, облачности и скорости ветра. Ночью, в пасмурную погоду, а также при ветре 12 м/с и более поправка равна нулю.
P - Атмосферное давление - приведенное к уровню моря атмосферное давление.
Po - Атмосферное давление - измеренное на уровне метеостанции атмосферное давление.
Tmin - Минимальная температура - минимум температуры воздуха на высоте 2 м над землей.
Tmax - Максимальная температура - максимум температуры воздуха на высоте 2 м над землей.
R - Количество осадков - Количество выпавших осадков за период времени, мм. При наведении курсора мыши на число - период времени, за который выпало указанное количество осадков.
R24 - Количество осадков - Количество выпавших осадков за 24 часа, мм.
S - Снежный покров - Высота снежного покрова, см. При наведении курсора мыши на число - состояние снежного покрова и степень покрытия местности в баллах.